When you browse on this site, cookies collect data to enhance your experience and personalize the content and advertising you see.
Visit our Privacy Policy to learn more. By continuing to use the site, you agree to this use of cookies and data.
  • In Hungary
  • List of Countries
  • For 7 days
  • Water Temperature
  • Satellite Maps
  • Weather Map
  • News
  • Weather Widgets
  • user-avatar
    Login

    Hourly Weather Ponferrada

    Today, 17 January, Thursday

    Time Temperature Precipitation Wind Pressure Humidity
    00:00 +6°C° 0.1 mm 1 mps 714 mmHg 93%
    01:00 +6°C° 0 mm 1 mps 714 mmHg 94%
    02:00 +5°C° 0 mm 2 mps 715 mmHg 95%
    03:00 +5°C° 0 mm 2 mps 715 mmHg 96%
    04:00 +5°C° 0 mm 2 mps 715 mmHg 95%
    05:00 +4°C° 0 mm 2 mps 715 mmHg 94%
    06:00 +4°C° 0 mm 2 mps 715 mmHg 94%
    07:00 +4°C° 0 mm 2 mps 715 mmHg 91%
    08:00 +4°C° 0 mm 2 mps 715 mmHg 88%
    09:00 +5°C° 0 mm 1 mps 716 mmHg 85%
    10:00 +5°C° 0 mm 2 mps 716 mmHg 75%
    11:00 +7°C° 0 mm 2 mps 716 mmHg 66%
    12:00 +8°C° 0 mm 2 mps 717 mmHg 57%
    13:00 +8°C° 0 mm 2 mps 716 mmHg 57%
    14:00 +9°C° 0 mm 2 mps 716 mmHg 57%
    15:00 +9°C° 0 mm 2 mps 716 mmHg 57%
    16:00 +7°C° 0 mm 2 mps 716 mmHg 66%
    17:00 +7°C° 0 mm 1 mps 716 mmHg 75%
    18:00 +5°C° 0 mm 1 mps 716 mmHg 84%
    19:00 +4°C° 0 mm 1 mps 716 mmHg 86%
    20:00 +4°C° 0 mm 1 mps 717 mmHg 89%
    21:00 +2°C° 0 mm 0 mps 717 mmHg 92%
    22:00 +2°C° 0 mm 0 mps 717 mmHg 91%
    23:00 +2°C° 0 mm 0 mps 717 mmHg 91%

    Tomorrow, 18 January, Friday

    Time Temperature Precipitation Wind Pressure Humidity
    00:00 +2°C° 0 mm 0 mps 717 mmHg 91%
    01:00 +2°C° 0 mm 0 mps 717 mmHg 88%
    02:00 +3°C° 0 mm 0 mps 716 mmHg 86%
    03:00 +3°C° 0 mm 0 mps 716 mmHg 84%
    04:00 +4°C° 0 mm 1 mps 716 mmHg 83%
    05:00 +4°C° 0 mm 1 mps 716 mmHg 83%
    06:00 +4°C° 0 mm 1 mps 716 mmHg 82%
    07:00 +5°C° 0 mm 1 mps 716 mmHg 79%
    08:00 +5°C° 0 mm 1 mps 716 mmHg 76%
    09:00 +6°C° 0 mm 1 mps 716 mmHg 73%
    10:00 +7°C° 0 mm 1 mps 716 mmHg 67%
    11:00 +7°C° 0 mm 2 mps 716 mmHg 61%
    12:00 +9°C° 0 mm 2 mps 715 mmHg 55%
    13:00 +9°C° 0 mm 2 mps 715 mmHg 59%
    14:00 +9°C° 0 mm 2 mps 714 mmHg 63%
    15:00 +9°C° 0 mm 2 mps 714 mmHg 67%
    16:00 +8°C° 0.1 mm 2 mps 714 mmHg 73%
    17:00 +8°C° 0.1 mm 1 mps 714 mmHg 79%
    18:00 +7°C° 0.1 mm 1 mps 714 mmHg 86%
    19:00 +7°C° 0 mm 1 mps 714 mmHg 87%
    20:00 +7°C° 0 mm 1 mps 714 mmHg 88%
    21:00 +7°C° 0 mm 1 mps 714 mmHg 89%
    22:00 +7°C° 0.1 mm 1 mps 714 mmHg 90%
    23:00 +7°C° 0.1 mm 1 mps 713 mmHg 91%

    Day after tomorrow, 19 January, Saturday

    Time Temperature Precipitation Wind Pressure Humidity
    00:00 +7°C° 0.1 mm 1 mps 713 mmHg 92%
    01:00 +7°C° 0.4 mm 1 mps 713 mmHg 93%
    02:00 +8°C° 0.4 mm 1 mps 712 mmHg 93%
    03:00 +8°C° 0.4 mm 1 mps 711 mmHg 94%
    04:00 +8°C° 1 mm 1 mps 711 mmHg 94%
    05:00 +8°C° 1 mm 1 mps 710 mmHg 94%
    06:00 +8°C° 1 mm 1 mps 709 mmHg 94%
    07:00 +8°C° 1.2 mm 1 mps 709 mmHg 93%
    08:00 +8°C° 1.2 mm 1 mps 709 mmHg 93%
    09:00 +9°C° 1.2 mm 1 mps 708 mmHg 92%
    10:00 +8°C° 0.7 mm 2 mps 708 mmHg 93%
    11:00 +9°C° 0.7 mm 2 mps 708 mmHg 93%
    12:00 +9°C° 0.7 mm 2 mps 708 mmHg 93%
    13:00 +9°C° 0.5 mm 2 mps 707 mmHg 93%
    14:00 +9°C° 0.5 mm 2 mps 707 mmHg 92%
    15:00 +9°C° 0.5 mm 2 mps 706 mmHg 92%
    16:00 +9°C° 0.9 mm 2 mps 707 mmHg 93%
    17:00 +9°C° 0.9 mm 2 mps 707 mmHg 94%
    18:00 +8°C° 0.9 mm 2 mps 708 mmHg 95%
    19:00 +8°C° 0.8 mm 3 mps 708 mmHg 95%
    20:00 +8°C° 0.8 mm 3 mps 709 mmHg 95%
    21:00 +8°C° 0.8 mm 3 mps 710 mmHg 95%
    22:00 +8°C° 1.1 mm 3 mps 711 mmHg 94%
    23:00 +7°C° 1.1 mm 3 mps 711 mmHg 94%

    20 January, Sunday

    Time Temperature Precipitation Wind Pressure Humidity
    00:00 +7°C° 1.1 mm 3 mps 712 mmHg 93%
    01:00 +7°C° 0.2 mm 3 mps 713 mmHg 92%
    02:00 +5°C° 0.2 mm 3 mps 713 mmHg 92%
    03:00 +5°C° 0.2 mm 3 mps 714 mmHg 91%
    04:00 +5°C° 0 mm 3 mps 714 mmHg 91%
    05:00 +4°C° 0 mm 3 mps 715 mmHg 91%
    06:00 +5°C° 0 mm 2 mps 715 mmHg 90%
    07:00 +5°C° 0 mm 2 mps 716 mmHg 90%
    08:00 +5°C° 0 mm 2 mps 717 mmHg 90%
    09:00 +5°C° 0 mm 2 mps 717 mmHg 90%
    10:00 +6°C° 0.1 mm 2 mps 718 mmHg 87%
    11:00 +7°C° 0.1 mm 3 mps 718 mmHg 85%
    12:00 +7°C° 0.1 mm 3 mps 718 mmHg 82%
    13:00 +7°C° 0 mm 3 mps 718 mmHg 80%
    14:00 +8°C° 0 mm 3 mps 718 mmHg 78%
    15:00 +8°C° 0 mm 3 mps 718 mmHg 76%
    16:00 +7°C° 0 mm 3 mps 718 mmHg 80%
    17:00 +6°C° 0 mm 2 mps 719 mmHg 84%
    18:00 +5°C° 0 mm 2 mps 719 mmHg 88%
    19:00 +5°C° 0 mm 2 mps 720 mmHg 90%
    20:00 +4°C° 0 mm 2 mps 720 mmHg 91%
    21:00 +4°C° 0 mm 2 mps 721 mmHg 93%
    22:00 +4°C° 0 mm 2 mps 721 mmHg 93%
    23:00 +4°C° 0 mm 2 mps 721 mmHg 94%

    21 January, Monday

    Time Temperature Precipitation Wind Pressure Humidity
    00:00 +4°C° 0 mm 2 mps 722 mmHg 95%
    01:00 +3°C° 0 mm 2 mps 722 mmHg 94%
    02:00 +3°C° 0 mm 2 mps 722 mmHg 94%
    03:00 +3°C° 0 mm 2 mps 722 mmHg 94%
    04:00 +3°C° 0 mm 1 mps 722 mmHg 94%
    05:00 +3°C° 0 mm 1 mps 722 mmHg 94%
    06:00 +3°C° 0 mm 1 mps 722 mmHg 94%
    07:00 +3°C° 0 mm 1 mps 722 mmHg 91%
    08:00 +4°C° 0 mm 1 mps 722 mmHg 88%
    09:00 +4°C° 0 mm 1 mps 723 mmHg 85%
    10:00 +6°C° 0 mm 1 mps 723 mmHg 77%
    11:00 +7°C° 0 mm 1 mps 723 mmHg 69%
    12:00 +9°C° 0 mm 1 mps 723 mmHg 60%
    13:00 +9°C° 0 mm 1 mps 722 mmHg 60%
    14:00 +9°C° 0 mm 1 mps 721 mmHg 60%
    15:00 +9°C° 0 mm 1 mps 721 mmHg 60%
    16:00 +7°C° 0 mm 1 mps 720 mmHg 69%
    17:00 +6°C° 0 mm 1 mps 720 mmHg 77%
    18:00 +4°C° 0 mm 1 mps 720 mmHg 86%
    19:00 +4°C° 0 mm 1 mps 720 mmHg 88%
    20:00 +3°C° 0 mm 1 mps 720 mmHg 90%
    21:00 +3°C° 0 mm 1 mps 720 mmHg 92%
    22:00 +3°C° 0 mm 1 mps 719 mmHg 92%
    23:00 +3°C° 0 mm 1 mps 719 mmHg 92%

    22 January, Tuesday

    Time Temperature Precipitation Wind Pressure Humidity
    00:00 +2°C° 0 mm 2 mps 718 mmHg 93%
    01:00 +2°C° 0.1 mm 2 mps 717 mmHg 90%
    02:00 +3°C° 0.1 mm 2 mps 717 mmHg 87%
    03:00 +3°C° 0.1 mm 2 mps 716 mmHg 85%
    04:00 +4°C° 0.4 mm 2 mps 715 mmHg 86%
    05:00 +4°C° 0.4 mm 3 mps 715 mmHg 87%
    06:00 +4°C° 0.4 mm 3 mps 714 mmHg 88%
    07:00 +4°C° 0.4 mm 4 mps 714 mmHg 89%
    08:00 +5°C° 0.4 mm 4 mps 713 mmHg 89%
    09:00 +5°C° 0.4 mm 5 mps 713 mmHg 89%
    10:00 +5°C° 0.5 mm 5 mps 712 mmHg 87%
    11:00 +3°C° 0.5 mm 5 mps 712 mmHg 85%
    12:00 +3°C° 0.5 mm 6 mps 711 mmHg 83%
    13:00 +3°C° 0.9 mm 6 mps 711 mmHg 84%
    14:00 +3°C° 0.9 mm 6 mps 710 mmHg 85%
    15:00 +2°C° 0.9 mm 6 mps 709 mmHg 86%
    16:00 +2°C° 0.9 mm 5 mps 709 mmHg 87%
    17:00 +1°C° 0.9 mm 5 mps 709 mmHg 88%
    18:00 +1°C° 0.9 mm 5 mps 709 mmHg 89%
    19:00 +1°C° 0.6 mm 5 mps 709 mmHg 89%
    20:00 +1°C° 0.6 mm 5 mps 709 mmHg 89%
    21:00 +1°C° 0.6 mm 5 mps 709 mmHg 89%
    22:00 +1°C° 0.4 mm 4 mps 708 mmHg 89%
    23:00 +1°C° 0.4 mm 4 mps 708 mmHg 90%
    Show more